Weather History for KCFS - December, 2012

Change the Weather History Date:

Saturday, December 29, 2012

  Actual Average (KMBS) Record (KMBS)
Temperature  
Mean Temperature 23 °F 24 °F  
Max Temperature 29 °F 30 °F 44 °F (2003)
Min Temperature 17 °F 18 °F 8 °F (1998)
Degree Days  
Heating Degree Days 42    
Month to date heating degree days  
Since 1 July heating degree days  
Cooling Degree Days 0    
Month to date cooling degree days  
Year to date cooling degree days  
Moisture  
Dew Point 22 °F    
Average Humidity 84    
Maximum Humidity 94    
Minimum Humidity 69    
Precipitation  
Precipitation 0.00 in 0.06 in 0.14 in (1998)
Month to date precipitation 1.75  
Year to date precipitation 31.43  
Snow  
Snow 0.00 in - - ()
Month to date snowfall  
Since 1 July snowfall  
Snow Depth -    
Sea Level Pressure  
Sea Level Pressure 29.89 in    
Wind  
Wind Speed 4 mph (NW)    
Max Wind Speed 15 mph    
Max Gust Speed 20 mph    
Visibility 8 miles    
Events Snow    
T = Trace of Precipitation, MM = Missing Value Source: NWS Daily Summary

Daily Weather History Graph

Daily Weather History Graph

Search for Another Location

Airport or City:

Trip Planner

Search our weather history database for the weather conditions in past years. The results will help you decide how hot, cold, wet, or windy it might be!

Date:

Astronomy

Dec. 29, 2012 Rise Set
Actual Time 8:06 AM EST 5:06 PM EST
Civil Twilight 7:33 AM EST 5:38 PM EST
Nautical Twilight 6:57 AM EST 6:14 PM EST
Astronomical Twilight 6:22 AM EST 6:49 PM EST
Moon 6:41 PM EST (12/29) 8:36 AM EST (12/29)
Length of Visible Light 10h 04m
Length of Day
8h 59m
Full, 98% of the Moon is Illuminated
Dec 29
Full
Jan 4
Last Quarter
Jan 11
New
Jan 18
First Quarter
Jan 26
Full

Hourly Weather History & Observations

Time (EST) Temp. Windchill Dew Point Humidity Pressure Visibility Wind Dir Wind Speed Gust Speed Precip Events Conditions
12:15 AM 23.0 °F - 20.7 °F 91% 29.95 in 10.0 mi Calm Calm - N/A   Overcast
12:34 AM 23.2 °F - 20.8 °F 91% 29.94 in 10.0 mi Calm Calm - N/A   Overcast
12:55 AM 23.4 °F - 21.0 °F 91% 29.94 in 10.0 mi Calm Calm - N/A   Overcast
1:15 AM 23.5 °F - 21.0 °F 90% 29.93 in 10.0 mi Calm Calm - N/A   Overcast
1:34 AM 23.5 °F - 21.2 °F 91% 29.92 in 10.0 mi Calm Calm - N/A Snow Light Snow
1:55 AM 23.7 °F - 21.2 °F 90% 29.91 in 10.0 mi Calm Calm - N/A   Overcast
2:15 AM 23.9 °F - 21.2 °F 89% 29.90 in 10.0 mi Calm Calm - N/A   Overcast
2:34 AM 23.9 °F 19.5 °F 21.2 °F 89% 29.90 in 10.0 mi ENE 3.5 mph - N/A   Overcast
2:55 AM 23.9 °F - 21.2 °F 89% 29.91 in 10.0 mi Calm Calm - N/A   Overcast
3:14 AM 23.9 °F - 21.0 °F 89% 29.90 in 10.0 mi Calm Calm - N/A   Overcast
3:35 AM 24.4 °F - 21.6 °F 89% 29.90 in 10.0 mi Calm Calm - N/A   Overcast
3:54 AM 24.4 °F - 21.2 °F 87% 29.89 in 7.0 mi Calm Calm - N/A Snow Light Snow
4:15 AM 24.1 °F - 21.0 °F 88% 29.89 in 10.0 mi Calm Calm - N/A   Overcast
4:35 AM 24.1 °F - 21.0 °F 88% 29.88 in 7.0 mi Calm Calm - N/A   Overcast
4:54 AM 24.3 °F - 21.2 °F 88% 29.87 in 10.0 mi Calm Calm - N/A   Overcast
5:15 AM 24.8 °F - 21.2 °F 86% 29.87 in 7.0 mi Calm Calm - N/A Snow Light Snow
5:34 AM 25.2 °F - 21.2 °F 85% 29.86 in 10.0 mi Calm Calm - N/A Snow Light Snow
5:54 AM 25.2 °F 18.3 °F 21.4 °F 86% 29.86 in 10.0 mi North 5.8 mph - N/A   Overcast
6:15 AM 25.3 °F 18.5 °F 21.9 °F 87% 29.86 in 10.0 mi North 5.8 mph - N/A   Overcast
6:34 AM 25.3 °F 18.5 °F 22.1 °F 87% 29.85 in 10.0 mi North 5.8 mph - N/A   Overcast
6:55 AM 25.2 °F 18.3 °F 22.1 °F 88% 29.85 in 7.0 mi North 5.8 mph - N/A Snow Light Snow
7:15 AM 24.8 °F 19.1 °F 22.1 °F 89% 29.86 in 7.0 mi North 4.6 mph - N/A Snow Light Snow
7:34 AM 24.8 °F 20.5 °F 22.6 °F 91% 29.86 in 7.0 mi North 3.5 mph - N/A Snow Light Snow
7:55 AM 24.8 °F 19.1 °F 23.0 °F 93% 29.85 in 7.0 mi North 4.6 mph - N/A Snow Light Snow
8:15 AM 25.2 °F 18.3 °F 23.4 °F 93% 29.84 in 7.0 mi North 5.8 mph - N/A Snow Light Snow
8:34 AM 25.5 °F 19.9 °F 23.9 °F 94% 29.84 in 5.0 mi NNW 4.6 mph - N/A Snow Light Snow
8:55 AM 25.9 °F 19.2 °F 23.9 °F 92% 29.84 in 4.0 mi NNW 5.8 mph - N/A Snow Light Snow
9:15 AM 26.4 °F 19.8 °F 23.9 °F 90% 29.84 in 2.5 mi NNW 5.8 mph - N/A Snow Light Snow
9:34 AM 26.2 °F 19.6 °F 23.2 °F 88% 29.84 in 7.0 mi NNW 5.8 mph - N/A Snow Light Snow
9:55 AM 26.4 °F 19.8 °F 23.0 °F 87% 29.84 in 5.0 mi NNW 5.8 mph - N/A Snow Light Snow
10:14 AM 26.6 °F 19.1 °F 23.7 °F 89% 29.84 in 7.0 mi NNW 6.9 mph - N/A   Overcast
10:35 AM 27.1 °F 18.2 °F 24.3 °F 89% 29.84 in 5.0 mi NNW 9.2 mph - N/A   Overcast
10:54 AM 27.5 °F 19.3 °F 24.6 °F 89% 29.85 in 7.0 mi NNW 8.1 mph - N/A   Overcast
11:15 AM 28.0 °F 19.3 °F 24.8 °F 88% 29.84 in 5.0 mi NW 9.2 mph - N/A   Overcast
11:35 AM 28.9 °F 21.1 °F 25.3 °F 86% 29.84 in 7.0 mi NW 8.1 mph - N/A   Overcast
11:54 AM 29.3 °F 21.5 °F 25.7 °F 86% 29.83 in 4.0 mi NW 8.1 mph - N/A Snow Light Snow
12:15 PM 29.5 °F 20.4 °F 26.4 °F 88% 29.83 in 3.0 mi NNW 10.4 mph - N/A   Overcast
12:35 PM 29.7 °F 20.7 °F 26.4 °F 88% 29.82 in 5.0 mi NNW 10.4 mph 17.3 mph N/A   Overcast
12:54 PM 29.8 °F 19.3 °F 26.4 °F 87% 29.82 in 7.0 mi NNW 13.8 mph 18.4 mph N/A   Overcast
1:15 PM 29.8 °F 19.8 °F 26.2 °F 86% 29.82 in 10.0 mi NNW 12.7 mph 18.4 mph N/A   Overcast
1:34 PM 29.5 °F 19.3 °F 25.7 °F 86% 29.82 in 7.0 mi NNW 12.7 mph 19.6 mph N/A   Overcast
1:54 PM 29.3 °F 19.1 °F 25.3 °F 85% 29.82 in 5.0 mi NNW 12.7 mph - N/A   Overcast
2:15 PM 28.9 °F 18.6 °F 24.8 °F 84% 29.82 in 5.0 mi NNW 12.7 mph - N/A   Overcast
2:34 PM 29.1 °F 20.0 °F 25.0 °F 85% 29.83 in 5.0 mi NNW 10.4 mph - N/A   Overcast
2:54 PM 28.9 °F 19.2 °F 24.8 °F 84% 29.84 in 4.0 mi NNW 11.5 mph - N/A   Overcast
3:15 PM 29.3 °F 20.2 °F 25.0 °F 84% 29.85 in 4.0 mi NNW 10.4 mph - N/A   Overcast
3:34 PM 29.5 °F 21.1 °F 25.0 °F 83% 29.85 in 7.0 mi NNW 9.2 mph - N/A   Overcast
3:55 PM 29.7 °F 21.3 °F 24.8 °F 82% 29.86 in 5.0 mi NW 9.2 mph - N/A Snow Light Snow
4:15 PM 29.5 °F 21.1 °F 24.3 °F 81% 29.87 in 4.0 mi NW 9.2 mph - N/A Snow Light Snow
4:34 PM 28.8 °F 18.4 °F 22.8 °F 78% 29.88 in 7.0 mi NW 12.7 mph - N/A   Overcast
4:55 PM 28.4 °F 18.5 °F 22.3 °F 78% 29.88 in 10.0 mi NW 11.5 mph 17.3 mph N/A   Overcast
5:15 PM 28.4 °F 19.7 °F 21.9 °F 77% 29.89 in 10.0 mi NW 9.2 mph - N/A   Overcast
5:34 PM 28.2 °F 19.5 °F 21.0 °F 74% 29.90 in 10.0 mi NW 9.2 mph - N/A   Overcast
5:55 PM 26.8 °F 20.2 °F 19.8 °F 75% 29.91 in 10.0 mi WNW 5.8 mph - N/A   Overcast
6:15 PM 26.1 °F 17.6 °F 19.4 °F 76% 29.92 in 10.0 mi NW 8.1 mph - N/A   Overcast
6:34 PM 26.4 °F 17.3 °F 19.9 °F 77% 29.93 in 10.0 mi NW 9.2 mph - N/A   Overcast
6:55 PM 26.6 °F 15.7 °F 19.4 °F 74% 29.93 in 10.0 mi NW 12.7 mph 17.3 mph N/A   Overcast
7:14 PM 26.6 °F 17.5 °F 19.0 °F 73% 29.94 in 10.0 mi NW 9.2 mph - N/A   Overcast
7:34 PM 27.3 °F 15.6 °F 18.3 °F 69% 29.94 in 10.0 mi NW 15.0 mph - N/A   Overcast
7:55 PM 27.1 °F 18.2 °F 18.3 °F 69% 29.95 in 10.0 mi WNW 9.2 mph - N/A   Overcast
8:14 PM 27.0 °F 19.5 °F 18.1 °F 69% 29.95 in 10.0 mi WNW 6.9 mph - N/A   Overcast
8:34 PM 25.2 °F 18.3 °F 17.1 °F 71% 29.95 in 10.0 mi WNW 5.8 mph - N/A   Scattered Clouds
8:55 PM 24.8 °F 16.9 °F 17.1 °F 72% 29.95 in 10.0 mi NW 6.9 mph - N/A   Mostly Cloudy
9:14 PM 24.6 °F 18.8 °F 17.1 °F 73% 29.97 in 10.0 mi WNW 4.6 mph - N/A   Overcast
9:55 PM 23.7 °F 16.6 °F 18.0 °F 79% 29.98 in 10.0 mi WNW 5.8 mph - N/A   Overcast
10:14 PM 23.9 °F 15.8 °F 17.2 °F 76% 29.99 in 10.0 mi West 6.9 mph - N/A   Mostly Cloudy
10:35 PM 21.2 °F 13.6 °F 16.0 °F 80% 29.99 in 10.0 mi West 5.8 mph - N/A   Scattered Clouds
10:55 PM 19.0 °F 11.1 °F 14.2 °F 81% 30.00 in 10.0 mi West 5.8 mph - N/A   Clear
11:14 PM 17.6 °F 9.3 °F 13.1 °F 83% 30.01 in 10.0 mi West 5.8 mph - N/A   Clear
11:35 PM 18.5 °F 9.3 °F 14.0 °F 83% 30.01 in 10.0 mi WNW 6.9 mph - N/A   Clear
11:55 PM 17.4 °F 9.1 °F 12.9 °F 83% 30.02 in 10.0 mi West 5.8 mph - N/A   Clear